Location: ?????????
(41.1143°N, 22.7905°E)
Time: 22:51:06
(UTC+00:00)

COSMO-SKYMED 1 - Visible Passes

Search period start: 14 March 2026 00:00
Search period end: 24 March 2026 00:00
Orbit: 576 x 579 km, 97.9° (Epoch: 14 March)

Date Brightness Start Highest point End Pass type
(mag) Time Alt. Az. Time Alt. Az. Time Alt. Az.
14 Mar 4.1 03:35:21 10° SE 03:39:08 38° ENE 03:42:57 10° N visible
14 Mar 5.9 18:28:33 10° NW 18:29:40 11° WNW 18:30:46 10° WNW visible
15 Mar 3.9 03:39:24 10° SE 03:43:15 42° ENE 03:47:08 10° N visible
15 Mar 2.4 16:55:00 10° NNE 16:59:07 74° ESE 17:03:12 10° S visible
16 Mar 3.6 03:43:26 10° SE 03:47:22 47° ENE 03:51:19 10° N visible
16 Mar 2.4 16:59:07 10° NNE 17:03:14 83° E 17:07:20 10° S visible
17 Mar 3.4 03:47:29 10° SSE 03:51:28 52° ENE 03:55:28 10° N visible
17 Mar 2.5 17:03:13 10° NNE 17:07:21 88° WNW 17:11:26 10° SSW visible
18 Mar 3.2 03:51:33 10° SSE 03:55:33 58° ENE 03:59:36 10° N visible
18 Mar 2.6 17:07:19 10° N 17:11:27 79° WNW 17:15:31 10° SSW visible
19 Mar 2.9 03:55:36 10° SSE 03:59:38 65° ENE 04:03:43 10° N visible
19 Mar 2.8 17:11:25 10° N 17:15:32 71° WNW 17:19:35 10° SSW visible
20 Mar 2.7 03:59:38 10° SSE 04:03:42 73° ENE 04:07:49 10° N visible
20 Mar 3.0 17:15:31 10° N 17:19:36 64° WNW 17:23:38 10° SSW visible
21 Mar 3.2 17:19:36 10° N 17:23:38 57° WNW 17:27:39 10° SSW visible
22 Mar 3.5 17:23:42 10° N 17:27:41 51° WNW 17:31:39 10° SSW visible
23 Mar 3.7 17:27:47 10° N 17:31:43 46° WNW 17:35:38 10° SW visible
